GW0388 Weather Reports


Display with metric or nautical units.
time (UTC)temp
F
wind
direction
speed
MPH
gust
MPH
rain 1hr
in
rain 24hr
in
rain mn
in
humidity
%
barometer
mb
20260505081557 53 0 0.0 1.0 0.00 0.00 0.00 87 1013.4
20260505080056 53 0 0.0 0.0 0.00 0.00 0.00 88 1013.3
20260505074552 53 0 0.0 0.0 0.00 0.00 0.00 87 1013.2
20260505073108 53 0 0.0 2.0 0.00 0.00 0.00 86 1013.0
20260505071605 53 0 0.0 1.0 0.00 0.00 0.00 85 1012.9
20260505070055 54 0 0.0 0.0 0.00 0.00 0.00 84 1012.7
20260505064559 54 225 0.0 2.0 0.00 0.00 0.00 84 1012.5
20260505063055 55 0 0.0 3.0 0.00 0.00 0.00 83 1012.4
20260505061604 55 0 0.0 3.0 0.00 0.00 0.00 82 1012.1
20260505054601 56 202 1.0 4.0 0.00 0.00 0.00 81 1012.1
20260505053112 57 0 0.0 2.0 0.00 0.00 0.00 80 1012.0
20260505051556 58 196 0.0 3.0 0.00 0.00 0.00 79 1011.9
20260505041612 63 0 1.0 6.0 0.00 0.00 0.00 73 1011.2
20260505040057 65 0 1.0 5.0 0.00 0.00 0.00 70 1010.9
20260505034549 67 267 1.0 6.0 0.00 0.00 0.00 63 1010.8
20260505033053 69 0 0.0 7.0 0.00 0.00 0.00 63 1010.4
20260505031600 70 250 0.0 4.0 0.00 0.00 0.00 64 1010.2
20260505030054 71 258 0.0 3.0 0.00 0.00 0.00 63 1010.1
20260505024555 72 236 2.0 6.0 0.00 0.00 0.00 62 1009.9
20260505023055 72 192 1.0 6.0 0.00 0.00 0.00 63 1009.7
20260505021555 72 0 1.0 7.0 0.00 0.00 0.00 62 1009.6
20260505020053 74 192 1.0 7.0 0.00 0.00 0.00 61 1009.6
20260505014553 74 276 1.0 9.0 0.00 0.00 0.00 61 1009.5
20260505013056 74 170 3.0 9.0 0.00 0.00 0.00 60 1009.5
20260505011551 74 232 4.0 10.0 0.00 0.00 0.00 60 1009.6
20260505010054 75 173 2.0 10.0 0.00 0.00 0.00 60 1009.7
20260505004552 75 184 1.0 7.0 0.00 0.00 0.00 61 1009.8
20260505003059 75 236 4.0 10.0 0.00 0.00 0.00 61 1009.8
20260505001559 75 194 4.0 11.0 0.00 0.00 0.00 63 1009.9
20260505000107 75 231 5.0 14.0 0.00 0.00 0.00 62 1010.0
20260504234624 75 183 5.0 12.0 0.00 0.00 0.00 61 1009.9
20260504233058 76 147 3.0 8.0 0.00 0.00 0.00 61 1010.1
20260504231602 75 231 3.0 11.0 0.00 0.00 0.00 62 1010.2
20260504230057 75 216 4.0 9.0 0.00 0.00 0.00 60 1010.3
20260504224549 74 184 2.0 10.0 0.00 0.00 0.00 61 1010.6
20260504223053 74 163 2.0 9.0 0.00 0.00 0.00 61 1010.8
20260504221600 73 157 3.0 12.0 0.00 0.00 0.00 63 1011.0
20260504220056 73 166 3.0 10.0 0.00 0.00 0.00 63 1011.1
20260504214554 72 250 5.0 10.0 0.00 0.00 0.00 64 1011.2
20260504213054 72 188 1.0 10.0 0.00 0.00 0.00 64 1011.4
20260504211553 71 227 1.0 6.0 0.00 0.00 0.00 64 1011.6
20260504210109 70 256 2.0 10.0 0.00 0.00 0.00 64 1012.0
20260504204601 70 169 1.0 7.0 0.00 0.00 0.00 64 1012.1
20260504203053 68 199 2.0 8.0 0.00 0.00 0.00 66 1012.3
20260504201559 68 148 3.0 7.0 0.00 0.00 0.00 66 1012.5
20260504200100 67 52 3.0 9.0 0.00 0.00 0.00 68 1012.6
20260504194609 66 209 1.0 6.0 0.00 0.00 0.00 69 1012.7
20260504193058 65 169 2.0 7.0 0.00 0.00 0.00 70 1012.8
20260504191555 64 244 2.0 9.0 0.00 0.00 0.00 72 1013.0
20260504190125 62 225 2.0 8.0 0.00 0.00 0.00 75 1013.0
20260504184557 62 0 2.0 9.0 0.00 0.00 0.00 74 1013.3
20260504183054 62 183 2.0 7.0 0.00 0.00 0.00 74 1013.2
20260504181558 61 185 2.0 10.0 0.00 0.00 0.00 76 1013.2
20260504180201 61 174 1.0 10.0 0.00 0.00 0.00 75 1013.3
20260504174555 61 126 2.0 8.0 0.00 0.00 0.00 77 1013.3
20260504173108 59 160 1.0 9.0 0.00 0.00 0.00 80 1013.2
20260504171551 58 209 3.0 8.0 0.00 0.00 0.00 81 1013.1
20260504120112 55 0 3.0 10.0 0.00 0.00 0.00 84 1010.2